Voltar ao catálogo

FENGYUN 1C DEB

AtivoSSO
NORAD 33665·DEBRIS·🇨🇳 China

Lançado May 10, 1999 de Taiyuan Satellite Launch Center

Loading…

Próximas Passagens (próximas 24 horas)

TLE

AtualizadoSource: Space-Track

Época: Sep 12, 2026, 03:28 UTC

1 33665U 99025DFA 26255.14445221  .00001028  00000-0  26733-3 0  9996
2 33665  99.0494  17.3372 0449728  48.9389 314.9738 14.05199960964297

Acompanhe FENGYUN 1C DEB em tempo real com AllMySat

Download on the App Store